Content
SEND FEEDBACK

Daily
Averages
Monthly
Summary
United States of America

WILMINGTON, NORTH CAROLINA


Home > North America > United States > North Carolina
Elevation: 72 feet     Latitude: 34 16N     Longitude: 077 54W

WEATHER
 
SELECT A DAY
Number of Records: 214,086;   Date Range: 1/1/95 - 12/18/14
 
SHARE

PRINT THIS DATA

[ ← Previous Day ]
WEATHER ALMANAC - FEBRUARY 12, 2014
[ Next Day → ]
[ °C ]   °F
Weather ElementAverageHighLow
Temperature32.7 °F37.9 °F (10:53 pm)28.9 °F (1:53 am)
Dewpoint29.5 °F37 °F (10:53 pm)23 °F (2:53 am)
Humidity88.1 %97 % (10:53 pm)78 % (2:53 am)
Barometer30.11 in30.33 in (1:53 am)29.67 in (11:53 pm)
Wind Speed15.1 mph20.7 mph (12:53 pm)
Wind Gust28.8 mph (2:53 pm)
Weather ElementAverage
Visibility3.8 mi
Wind DirectionNE (40.9 °)

Weather ElementTotal
Precipitation1.30 in
Heating Degree Days31.6 (Base 65)
Averaged from 44 records on February 12, 2014
WEATHER CONDITIONS BREAKOUT
WIND DIRECTION BREAKOUT
WEATHER BY HOUR - FEBRUARY 12, 2014
[ °C ]   °F
Local TimeTemperatureDewpointHumidityBarometerVisibilityWind DirectionWind SpeedGust SpeedPrecipitationEventsConditions
1:53 AM28.9 °F24.1 °F82 %30.33 in9.0 miNNE (30°)12.7 mphOvercast
2:53 AM28.9 °F23.0 °F78 %30.32 in9.0 miNNE (30°)13.8 mphOvercast
3:53 AM28.9 °F23.0 °F78 %30.32 in8.0 miNNE (20°)16.1 mphOvercast
4:39 AM28.9 °F24.1 °F82 %30.33 in5.0 miNNE (30°)13.8 mph0.01 inRainLight Freezing Rain
4:53 AM28.9 °F25.0 °F85 %30.32 in5.0 miNNE (30°)16.1 mph0.02 inRainLight Freezing Rain
5:53 AM28.9 °F25.0 °F85 %30.31 in6.0 miNNE (30°)16.1 mph0.02 inRainLight Freezing Rain
6:53 AM30.0 °F25.0 °F82 %30.32 in5.0 miNNE (30°)18.4 mph0.02 inRainLight Freezing Rain
7:15 AM30.0 °F25.0 °F82 %30.32 in5.0 miNNE (30°)17.3 mph0.01 inOvercast
7:40 AM30.0 °F25.0 °F82 %30.32 in4.0 miNNE (20°)18.4 mph0.02 inRainLight Freezing Rain
7:53 AM30.0 °F26.1 °F85 %30.32 in4.0 miNNE (20°)16.1 mph0.03 inRainLight Freezing Rain
8:53 AM30.9 °F26.1 °F82 %30.32 in4.0 miNNE (30°)16.1 mph0.04 inRainLight Freezing Rain
9:53 AM30.9 °F27.0 °F85 %30.30 in3.0 miNNE (30°)15.0 mph23.0 mph0.03 inRainLight Freezing Rain
10:00 AM30.9 °F27.0 °F85 %30.31 in2.0 miNNE (20°)16.1 mph0.01 inRainLight Freezing Rain
10:16 AM30.9 °F27.0 °F85 %30.31 in2.5 miNNE (30°)15.0 mph0.04 inRainLight Freezing Rain
10:23 AM30.9 °F28.0 °F89 %30.30 in2.0 miNNE (20°)15.0 mph0.06 inOvercast
10:28 AM30.9 °F28.0 °F89 %30.31 in1.8 miNNE (30°)15.0 mph0.07 inRainLight Freezing Rain
10:35 AM30.9 °F28.0 °F89 %30.31 in1.8 miNNE (20°)15.0 mph0.10 inRainLight Freezing Rain
10:53 AM32.0 °F28.0 °F85 %30.27 in1.5 miNNE (30°)19.6 mph0.17 inRainLight Freezing Rain
11:09 AM32.0 °F28.9 °F88 %30.26 in1.8 miNNE (30°)15.0 mph26.5 mph0.05 inRainLight Freezing Rain
11:11 AM32.0 °F28.9 °F88 %30.26 in2.0 miNNE (30°)19.6 mph26.5 mph0.05 inRainLight Freezing Rain
11:39 AM32.0 °F28.9 °F88 %30.25 in2.0 miNorth (10°)13.8 mph23.0 mph0.10 inRainLight Freezing Rain
11:50 AM32.0 °F28.4 °F87 %30.25 in3.0 miNNE (30°)17.3 mph23.0 mph0.11 inRainLight Freezing Rain
11:53 AM32.0 °F28.9 °F88 %30.24 in3.0 miNNE (20°)13.8 mph23.0 mph0.11 inRainLight Freezing Rain
12:51 PM33.8 °F30.2 °F87 %30.18 in3.0 miNNE (20°)17.3 mph25.3 mph0.04 inRainLight Rain
12:53 PM33.1 °F30.0 °F89 %30.18 in3.0 miNNE (20°)20.7 mph25.3 mph0.05 inRainLight Rain
1:53 PM33.1 °F30.0 °F89 %30.12 in3.0 miNNE (30°)19.6 mph27.6 mph0.07 inRainLight Rain
2:53 PM34.0 °F30.9 °F89 %30.05 in10.0 miNNE (30°)20.7 mph28.8 mph0.06 inOvercast
3:53 PM34.0 °F30.9 °F89 %30.03 in8.0 miNE (40°)18.4 mph25.3 mph0.00 inOvercast
4:43 PM34.0 °F32.0 °F92 %29.99 in2.0 miNE (40°)19.6 mph25.3 mph0.00 inRainLight Rain
4:51 PM33.8 °F32.0 °F93 %29.98 in1.5 miNNE (30°)17.3 mph0.00 inRainLight Rain
4:53 PM34.0 °F32.0 °F92 %29.98 in1.8 miNNE (30°)17.3 mph0.00 inRainLight Rain
5:00 PM34.0 °F32.0 °F92 %29.98 in3.0 miNE (40°)20.7 mph25.3 mph0.00 inRainLight Rain
5:53 PM35.1 °F32.0 °F89 %29.95 in10.0 miNE (40°)17.3 mph0.00 inOvercast
6:53 PM35.1 °F33.1 °F92 %29.91 in9.0 miNNE (30°)12.7 mph17.3 mphOvercast
7:06 PM35.1 °F33.1 °F92 %29.90 in6.0 miNE (40°)10.4 mphOvercast
7:53 PM35.1 °F33.1 °F92 %29.85 in4.0 miNNE (30°)12.7 mphOvercast
8:25 PM35.1 °F33.1 °F92 %29.83 in2.5 miNNE (30°)11.5 mph0.00 inOvercast
8:53 PM36.0 °F34.0 °F93 %29.80 in2.5 miNNE (20°)10.4 mph0.01 inOvercast
9:18 PM36.0 °F34.0 °F93 %29.77 in1.8 miNNE (20°)9.2 mphOvercast
9:39 PM37.0 °F35.1 °F93 %29.75 in1.2 miNNE (30°)12.7 mphOvercast
9:53 PM37.0 °F35.1 °F93 %29.75 in1.0 miNNE (20°)10.4 mphMist
10:53 PM37.9 °F37.0 °F97 %29.68 in1.2 miNNE (20°)8.1 mph0.00 inOvercast
11:30 PM37.9 °F36.0 °F93 %29.68 in0.8 miNW (320°)8.1 mphMist
11:53 PM37.0 °F36.0 °F96 %29.67 in0.5 miNW (320°)5.8 mph0.00 inFogFog
Hourly data recorded from KILM, located miles away from Wilmington, North Carolina







STORIES FROM OUR PARTNERS